QPF
0.00 0.00 0.00 0.00 0.00 0.00 0.00 0.01 0.01 0.01 0.01 0.01 0.01 0.01 0.01 0.02 0.02 0.03 0.02 0.02 0.02 0.02 0.02 0.02 0.02 0.02 0.02 0.02 0.02 0.02 0.02 0.02 0.02 0.02 0.02 0.02 0.02 0.02 0.03 0.05 0.07 0.07 0.05
0.00 0.00 0.00 0.00 0.00 0.00 0.00 0.00 0.00 0.00 0.00 0.01 0.01 0.01 0.01 0.01 0.01 0.02 0.03 0.02 0.02 0.02 0.01 0.02 0.02 0.02 0.02 0.02 0.02 0.01 0.01 0.01 0.02 0.02 0.01 0.01 0.02 0.02 0.02 0.04 0.06 0.08 0.07
0.00 0.00 0.00 0.00 0.00 0.00 0.00 0.00 0.00 0.00 0.00 0.00 0.01 0.01 0.01 0.01 0.01 0.01 0.02 0.02 0.02 0.02 0.01 0.01 0.01 0.01 0.01 0.01 0.01 0.01 0.01 0.01 0.01 0.01 0.01 0.01 0.02 0.03 0.03 0.03 0.05 0.07 0.07
0.01 0.00 0.00 0.00 0.00 0.00 0.00 0.00 0.00 0.00 0.00 0.00 0.00 0.00 0.01 0.01 0.01 0.01 0.01 0.02 0.02 0.02 0.01 0.01 0.01 0.01 0.01 0.01 0.01 0.01 0.01 0.01 0.01 0.01 0.01 0.01 0.02 0.03 0.04 0.05 0.05 0.06 0.07
0.00 0.00 0.00 0.00 0.00 0.01 0.01 0.00 0.00 0.00 0.00 0.00 0.00 0.01 0.01 0.01 0.01 0.01 0.01 0.03 0.03 0.02 0.02 0.01 0.01 0.01 0.01 0.01 0.02 0.01 0.01 0.01 0.01 0.01 0.01 0.01 0.02 0.03 0.04 0.05 0.05 0.05 0.05
0.01 0.01 0.01 0.01 0.01 0.01 0.01 0.01 0.00 0.00 0.00 0.00 0.00 0.01 0.01 0.01 0.01 0.01 0.02 0.03 0.03 0.02 0.01 0.01 0.01 0.01 0.01 0.01 0.01 0.01 0.02 0.02 0.02 0.02 0.02 0.02 0.01 0.02 0.02 0.04 0.05 0.05 0.05
0.01 0.01 0.01 0.01 0.01 0.01 0.01 0.01 0.01 0.01 0.01 0.00 0.01 0.01 0.01 0.01 0.02 0.02 0.02 0.03 0.03 0.02 0.01 0.01 0.01 0.01 0.01 0.01 0.01 0.01 0.01 0.01 0.02 0.02 0.02 0.01 0.01 0.01 0.02 0.03 0.04 0.04 0.04
0.01 0.01 0.01 0.01 0.01 0.01 0.01 0.01 0.01 0.01 0.01 0.01 0.01 0.01 0.01 0.01 0.02 0.02 0.03 0.03 0.02 0.02 0.01 0.01 0.01 0.01 0.01 0.01 0.01 0.01 0.01 0.01 0.01 0.01 0.01 0.01 0.01 0.01 0.02 0.03 0.04 0.04 0.04
0.01 0.02 0.02 0.02 0.02 0.01 0.01 0.01 0.01 0.01 0.01 0.01 0.01 0.01 0.01 0.01 0.02 0.02 0.03 0.03 0.02 0.02 0.02 0.01 0.01 0.01 0.01 0.02 0.02 0.02 0.01 0.01 0.01 0.01 0.01 0.01 0.01 0.01 0.02 0.03 0.04 0.05 0.05
0.01 0.01 0.02 0.02 0.02 0.02 0.01 0.01 0.01 0.01 0.01 0.01 0.01 0.01 0.01 0.01 0.01 0.02 0.03 0.03 0.02 0.02 0.02 0.01 0.02 0.02 0.02 0.03 0.03 0.03 0.03 0.02 0.01 0.01 0.01 0.01 0.01 0.01 0.01 0.02 0.03 0.05 0.05
0.01 0.01 0.01 0.02 0.02 0.01 0.01 0.01 0.01 0.01 0.01 0.01 0.01 0.01 0.01 0.01 0.01 0.02 0.03 0.03 0.03 0.03 0.02 0.02 0.01 0.02 0.02 0.03 0.03 0.03 0.03 0.03 0.02 0.02 0.01 0.01 0.01 0.01 0.01 0.01 0.01 0.03 0.05
0.01 0.01 0.01 0.02 0.02 0.02 0.02 0.01 0.01 0.01 0.01 0.01 0.01 0.01 0.01 0.01 0.01 0.02 0.02 0.03 0.03 0.03 0.02 0.02 0.01 0.02 0.02 0.02 0.02 0.02 0.03 0.03 0.03 0.02 0.02 0.02 0.01 0.02 0.02 0.02 0.02 0.02 0.03
0.01 0.01 0.01 0.02 0.02 0.02 0.02 0.02 0.02 0.02 0.02 0.02 0.02 0.02 0.01 0.01 0.01 0.02 0.02 0.02 0.02 0.02 0.02 0.02 0.02 0.02 0.02 0.02 0.02 0.02 0.02 0.02 0.02 0.02 0.02 0.02 0.02 0.02 0.02 0.02 0.03 0.03 0.04
0.01 0.01 0.01 0.01 0.01 0.01 0.01 0.02 0.02 0.03 0.04 0.03 0.03 0.02 0.02 0.02 0.02 0.02 0.03 0.02 0.02 0.02 0.02 0.02 0.02 0.03 0.03 0.03 0.02 0.02 0.02 0.02 0.02 0.02 0.02 0.02 0.02 0.02 0.03 0.03 0.03 0.04 0.05
0.00 0.00 0.01 0.01 0.01 0.01 0.01 0.01 0.02 0.03 0.04 0.05 0.05 0.04 0.03 0.03 0.03 0.03 0.04 0.04 0.04 0.03 0.03 0.03 0.03 0.03 0.03 0.03 0.03 0.03 0.03 0.03 0.02 0.02 0.02 0.03 0.03 0.03 0.03 0.03 0.03 0.04 0.05
0.00 0.00 0.00 0.01 0.01 0.01 0.01 0.01 0.02 0.02 0.03 0.03 0.04 0.04 0.04 0.04 0.04 0.03 0.04 0.04 0.04 0.03 0.03 0.03 0.03 0.03 0.03 0.03 0.03 0.03 0.03 0.04 0.03 0.03 0.03 0.04 0.04 0.04 0.03 0.03 0.03 0.04 0.05
0.00 0.00 0.00 0.00 0.01 0.01 0.01 0.01 0.01 0.02 0.01 0.01 0.02 0.02 0.03 0.03 0.03 0.03 0.04 0.04 0.04 0.03 0.03 0.02 0.02 0.02 0.03 0.03 0.03 0.03 0.03 0.03 0.03 0.03 0.03 0.03 0.04 0.04 0.04 0.03 0.03 0.04 0.05
0.00 0.00 0.00 0.01 0.01 0.01 0.01 0.01 0.01 0.01 0.01 0.01 0.01 0.01 0.01 0.02 0.02 0.02 0.03 0.04 0.03 0.03 0.03 0.03 0.02 0.02 0.02 0.02 0.03 0.03 0.03 0.02 0.03 0.03 0.03 0.03 0.03 0.03 0.03 0.03 0.03 0.03 0.04
0.00 0.00 0.01 0.01 0.00 0.00 0.00 0.00 0.01 0.01 0.01 0.01 0.01 0.01 0.01 0.01 0.01 0.02 0.02 0.03 0.03 0.03 0.03 0.03 0.02 0.02 0.02 0.02 0.02 0.02 0.02 0.03 0.03 0.03 0.03 0.03 0.03 0.03 0.03 0.03 0.04 0.04 0.05
0.01 0.01 0.01 0.00 0.00 0.00 0.00 0.00 0.00 0.01 0.01 0.01 0.01 0.01 0.01 0.01 0.01 0.01 0.02 0.02 0.03 0.03 0.03 0.03 0.03 0.03 0.02 0.02 0.02 0.02 0.02 0.02 0.02 0.03 0.03 0.03 0.03 0.03 0.04 0.04 0.04 0.04 0.05
0.00 0.00 0.00 0.00 0.00 0.00 0.00 0.00 0.01 0.01 0.01 0.01 0.01 0.01 0.02 0.02 0.02 0.02 0.02 0.02 0.02 0.03 0.03 0.03 0.03 0.03 0.03 0.03 0.03 0.02 0.02 0.02 0.02 0.02 0.02 0.02 0.02 0.03 0.03 0.04 0.04 0.04 0.05
0.00 0.00 0.00 0.00 0.00 0.00 0.01 0.01 0.01 0.01 0.01 0.01 0.01 0.01 0.02 0.02 0.02 0.02 0.02 0.02 0.02 0.02 0.03 0.03 0.03 0.03 0.03 0.03 0.03 0.02 0.02 0.02 0.02 0.02 0.02 0.02 0.02 0.02 0.02 0.03 0.03 0.04 0.04
0.00 0.00 0.00 0.00 0.00 0.01 0.01 0.01 0.01 0.01 0.01 0.01 0.01 0.02 0.01 0.01 0.01 0.01 0.02 0.01 0.02 0.02 0.02 0.02 0.03 0.03 0.03 0.03 0.02 0.02 0.02 0.02 0.02 0.02 0.02 0.02 0.02 0.02 0.02 0.02 0.02 0.03 0.03
0.00 0.00 0.00 0.00 0.00 0.01 0.01 0.01 0.01 0.01 0.01 0.01 0.01 0.01 0.01 0.01 0.01 0.01 0.01 0.01 0.01 0.01 0.01 0.02 0.02 0.02 0.02 0.02 0.02 0.02 0.02 0.02 0.02 0.02 0.02 0.02 0.02 0.02 0.02 0.02 0.02 0.02 0.03
0.00 0.00 0.00 0.00 0.00 0.00 0.00 0.01 0.01 0.01 0.01 0.01 0.01 0.01 0.01 0.01 0.01 0.01 0.01 0.01 0.01 0.01 0.01 0.01 0.01 0.01 0.01 0.01 0.02 0.02 0.02 0.02 0.02 0.03 0.03 0.03 0.02 0.02 0.02 0.02 0.02 0.02 0.02
0.00 0.00 0.00 0.00 0.00 0.00 0.00 0.01 0.01 0.01 0.01 0.01 0.01 0.01 0.01 0.01 0.01 0.01 0.01 0.01 0.01 0.01 0.01 0.01 0.01 0.01 0.01 0.01 0.01 0.01 0.01 0.02 0.02 0.02 0.04 0.04 0.03 0.02 0.02 0.02 0.02 0.02 0.02
MSLP
1020.49 1021.45 1022.40 1023.31 1024.18 1025.00 1025.79 1026.57 1027.34 1028.10 1028.84 1029.56 1030.20 1030.76 1031.22 1031.57 1031.84 1032.03 1032.19 1032.35 1032.54 1032.77 1033.04 1033.33 1033.61 1033.85 1034.03 1034.11 1034.09 1034.00 1033.84 1033.63 1033.40 1033.16 1032.91 1032.66 1032.39 1032.09 1031.74 1031.35 1030.92 1030.47 1030.00
1020.07 1021.04 1021.98 1022.89 1023.75 1024.56 1025.36 1026.15 1026.95 1027.75 1028.54 1029.31 1030.01 1030.61 1031.10 1031.47 1031.73 1031.91 1032.04 1032.16 1032.30 1032.48 1032.71 1032.97 1033.24 1033.48 1033.66 1033.76 1033.77 1033.70 1033.56 1033.36 1033.14 1032.90 1032.66 1032.41 1032.14 1031.85 1031.53 1031.17 1030.77 1030.35 1029.92
1019.62 1020.61 1021.57 1022.48 1023.33 1024.14 1024.93 1025.72 1026.53 1027.35 1028.17 1028.97 1029.71 1030.35 1030.87 1031.26 1031.52 1031.69 1031.80 1031.88 1031.99 1032.13 1032.32 1032.56 1032.80 1033.03 1033.22 1033.33 1033.36 1033.30 1033.18 1033.00 1032.78 1032.54 1032.30 1032.05 1031.80 1031.52 1031.22 1030.89 1030.53 1030.15 1029.76
1019.13 1020.16 1021.14 1022.05 1022.90 1023.71 1024.48 1025.27 1026.07 1026.90 1027.74 1028.56 1029.33 1030.00 1030.55 1030.97 1031.25 1031.42 1031.52 1031.59 1031.67 1031.79 1031.95 1032.15 1032.37 1032.59 1032.76 1032.87 1032.91 1032.86 1032.73 1032.55 1032.33 1032.09 1031.85 1031.60 1031.35 1031.09 1030.81 1030.51 1030.19 1029.85 1029.50
1018.61 1019.67 1020.67 1021.60 1022.45 1023.25 1024.02 1024.79 1025.59 1026.43 1027.28 1028.12 1028.91 1029.62 1030.20 1030.65 1030.96 1031.16 1031.28 1031.35 1031.42 1031.51 1031.65 1031.82 1032.01 1032.20 1032.35 1032.44 1032.45 1032.39 1032.25 1032.05 1031.82 1031.56 1031.31 1031.05 1030.81 1030.56 1030.31 1030.04 1029.76 1029.46 1029.14
1018.09 1019.18 1020.20 1021.14 1021.99 1022.79 1023.56 1024.33 1025.13 1025.96 1026.83 1027.69 1028.51 1029.24 1029.87 1030.36 1030.71 1030.94 1031.08 1031.17 1031.24 1031.33 1031.44 1031.58 1031.73 1031.87 1031.98 1032.03 1032.00 1031.90 1031.73 1031.50 1031.24 1030.97 1030.69 1030.43 1030.19 1029.96 1029.72 1029.49 1029.25 1028.99 1028.71
1017.63 1018.72 1019.75 1020.70 1021.57 1022.37 1023.15 1023.93 1024.74 1025.58 1026.46 1027.33 1028.17 1028.94 1029.60 1030.12 1030.52 1030.79 1030.96 1031.06 1031.14 1031.22 1031.30 1031.40 1031.51 1031.60 1031.65 1031.64 1031.56 1031.41 1031.19 1030.93 1030.64 1030.33 1030.05 1029.78 1029.54 1029.32 1029.12 1028.92 1028.72 1028.50 1028.26
1017.31 1018.39 1019.41 1020.37 1021.25 1022.07 1022.86 1023.66 1024.49 1025.34 1026.23 1027.11 1027.96 1028.74 1029.42 1029.97 1030.38 1030.68 1030.87 1030.99 1031.06 1031.12 1031.18 1031.24 1031.29 1031.32 1031.30 1031.23 1031.10 1030.90 1030.64 1030.34 1030.02 1029.71 1029.41 1029.15 1028.92 1028.72 1028.54 1028.38 1028.21 1028.04 1027.83
1017.21 1018.25 1019.26 1020.22 1021.11 1021.95 1022.77 1023.60 1024.44 1025.30 1026.18 1027.06 1027.90 1028.67 1029.34 1029.88 1030.29 1030.58 1030.77 1030.89 1030.95 1030.98 1031.01 1031.02 1031.02 1030.99 1030.92 1030.80 1030.61 1030.38 1030.09 1029.78 1029.45 1029.13 1028.84 1028.59 1028.38 1028.20 1028.06 1027.93 1027.79 1027.65 1027.49
1017.39 1018.39 1019.37 1020.32 1021.22 1022.08 1022.92 1023.76 1024.61 1025.47 1026.33 1027.18 1027.98 1028.70 1029.32 1029.82 1030.20 1030.46 1030.63 1030.72 1030.75 1030.76 1030.74 1030.71 1030.67 1030.60 1030.48 1030.33 1030.12 1029.87 1029.58 1029.27 1028.96 1028.66 1028.39 1028.16 1027.97 1027.82 1027.70 1027.59 1027.49 1027.37 1027.24
1017.89 1018.83 1019.77 1020.70 1021.60 1022.47 1023.32 1024.16 1025.00 1025.83 1026.65 1027.44 1028.16 1028.80 1029.34 1029.77 1030.08 1030.29 1030.41 1030.45 1030.45 1030.43 1030.38 1030.32 1030.25 1030.15 1030.02 1029.86 1029.65 1029.41 1029.14 1028.86 1028.58 1028.32 1028.08 1027.88 1027.72 1027.59 1027.48 1027.39 1027.30 1027.20 1027.07
1018.71 1019.58 1020.47 1021.36 1022.24 1023.09 1023.93 1024.75 1025.55 1026.33 1027.08 1027.77 1028.39 1028.93 1029.36 1029.68 1029.91 1030.04 1030.10 1030.10 1030.07 1030.02 1029.95 1029.88 1029.80 1029.70 1029.58 1029.43 1029.25 1029.04 1028.81 1028.58 1028.34 1028.12 1027.93 1027.75 1027.61 1027.49 1027.38 1027.29 1027.19 1027.08 1026.95
1019.80 1020.59 1021.41 1022.24 1023.07 1023.89 1024.68 1025.45 1026.19 1026.89 1027.54 1028.12 1028.62 1029.02 1029.33 1029.55 1029.68 1029.74 1029.74 1029.70 1029.65 1029.58 1029.51 1029.45 1029.38 1029.30 1029.20 1029.08 1028.94 1028.78 1028.61 1028.42 1028.24 1028.06 1027.89 1027.74 1027.60 1027.47 1027.35 1027.23 1027.10 1026.97 1026.82
1021.07 1021.76 1022.49 1023.25 1024.01 1024.77 1025.49 1026.19 1026.85 1027.44 1027.97 1028.43 1028.79 1029.07 1029.26 1029.37 1029.41 1029.40 1029.36 1029.30 1029.23 1029.17 1029.12 1029.08 1029.03 1028.98 1028.92 1028.84 1028.75 1028.63 1028.50 1028.36 1028.22 1028.07 1027.92 1027.77 1027.63 1027.48 1027.32 1027.17 1027.00 1026.82 1026.64
1022.39 1022.99 1023.63 1024.29 1024.97 1025.64 1026.28 1026.89 1027.44 1027.92 1028.33 1028.66 1028.90 1029.05 1029.13 1029.15 1029.12 1029.07 1029.00 1028.94 1028.88 1028.84 1028.82 1028.81 1028.80 1028.78 1028.75 1028.71 1028.64 1028.56 1028.46 1028.35 1028.23 1028.09 1027.95 1027.79 1027.62 1027.44 1027.25 1027.04 1026.82 1026.59 1026.36
1023.67 1024.16 1024.70 1025.27 1025.85 1026.42 1026.97 1027.48 1027.93 1028.30 1028.60 1028.80 1028.93 1028.98 1028.98 1028.93 1028.86 1028.78 1028.71 1028.65 1028.62 1028.61 1028.62 1028.64 1028.66 1028.66 1028.65 1028.62 1028.57 1028.50 1028.41 1028.30 1028.18 1028.04 1027.89 1027.72 1027.53 1027.31 1027.08 1026.82 1026.56 1026.28 1026.00
1024.79 1025.19 1025.64 1026.12 1026.61 1027.09 1027.55 1027.96 1028.31 1028.59 1028.78 1028.89 1028.92 1028.90 1028.83 1028.73 1028.64 1028.55 1028.49 1028.45 1028.45 1028.47 1028.50 1028.54 1028.56 1028.58 1028.57 1028.53 1028.47 1028.38 1028.28 1028.15 1028.02 1027.87 1027.70 1027.51 1027.30 1027.07 1026.80 1026.52 1026.21 1025.90 1025.58
1025.72 1026.05 1026.42 1026.82 1027.24 1027.65 1028.03 1028.36 1028.62 1028.81 1028.91 1028.94 1028.91 1028.82 1028.71 1028.58 1028.47 1028.38 1028.33 1028.32 1028.33 1028.36 1028.41 1028.45 1028.47 1028.46 1028.42 1028.36 1028.26 1028.14 1028.00 1027.85 1027.69 1027.53 1027.35 1027.15 1026.94 1026.69 1026.43 1026.13 1025.82 1025.48 1025.14
1026.45 1026.73 1027.05 1027.40 1027.76 1028.11 1028.43 1028.69 1028.89 1029.00 1029.04 1029.01 1028.91 1028.78 1028.63 1028.48 1028.36 1028.27 1028.22 1028.21 1028.23 1028.26 1028.29 1028.31 1028.30 1028.26 1028.17 1028.05 1027.90 1027.74 1027.56 1027.37 1027.19 1027.01 1026.83 1026.64 1026.43 1026.21 1025.96 1025.68 1025.38 1025.06 1024.72
1027.04 1027.29 1027.58 1027.89 1028.22 1028.52 1028.79 1029.00 1029.14 1029.20 1029.18 1029.09 1028.94 1028.77 1028.59 1028.42 1028.28 1028.18 1028.12 1028.10 1028.10 1028.11 1028.11 1028.09 1028.03 1027.93 1027.78 1027.60 1027.39 1027.17 1026.95 1026.73 1026.53 1026.34 1026.16 1025.99 1025.81 1025.61 1025.40 1025.16 1024.90 1024.60 1024.28
1027.54 1027.78 1028.06 1028.35 1028.64 1028.91 1029.14 1029.30 1029.39 1029.39 1029.32 1029.18 1029.00 1028.78 1028.57 1028.37 1028.21 1028.08 1028.00 1027.95 1027.92 1027.89 1027.84 1027.76 1027.64 1027.48 1027.27 1027.02 1026.75 1026.47 1026.20 1025.95 1025.72 1025.53 1025.36 1025.20 1025.06 1024.91 1024.74 1024.54 1024.32 1024.07 1023.78
1028.03 1028.26 1028.52 1028.79 1029.06 1029.29 1029.47 1029.58 1029.61 1029.57 1029.44 1029.26 1029.03 1028.78 1028.53 1028.31 1028.11 1027.96 1027.84 1027.75 1027.67 1027.59 1027.48 1027.34 1027.16 1026.92 1026.65 1026.33 1026.00 1025.67 1025.36 1025.07 1024.82 1024.61 1024.44 1024.30 1024.18 1024.05 1023.92 1023.77 1023.59 1023.38 1023.13
1028.53 1028.75 1028.99 1029.22 1029.44 1029.62 1029.75 1029.81 1029.78 1029.69 1029.51 1029.29 1029.02 1028.74 1028.46 1028.20 1027.97 1027.78 1027.63 1027.49 1027.36 1027.22 1027.06 1026.85 1026.60 1026.30 1025.96 1025.58 1025.19 1024.81 1024.45 1024.12 1023.84 1023.60 1023.41 1023.26 1023.13 1023.02 1022.90 1022.77 1022.61 1022.43 1022.22
1029.06 1029.25 1029.44 1029.62 1029.78 1029.89 1029.95 1029.94 1029.85 1029.70 1029.49 1029.23 1028.93 1028.62 1028.32 1028.04 1027.79 1027.56 1027.37 1027.19 1027.01 1026.81 1026.59 1026.32 1026.00 1025.64 1025.23 1024.80 1024.35 1023.91 1023.49 1023.11 1022.78 1022.50 1022.27 1022.08 1021.92 1021.77 1021.64 1021.50 1021.35 1021.18 1020.99
1029.60 1029.72 1029.84 1029.94 1030.01 1030.04 1030.02 1029.94 1029.80 1029.60 1029.36 1029.07 1028.76 1028.44 1028.12 1027.83 1027.56 1027.31 1027.08 1026.85 1026.62 1026.37 1026.08 1025.75 1025.37 1024.94 1024.48 1023.98 1023.47 1022.97 1022.49 1022.05 1021.65 1021.30 1021.00 1020.74 1020.52 1020.33 1020.15 1019.97 1019.80 1019.63 1019.44
1030.08 1030.11 1030.13 1030.14 1030.12 1030.06 1029.96 1029.81 1029.62 1029.39 1029.12 1028.82 1028.51 1028.19 1027.88 1027.57 1027.29 1027.02 1026.75 1026.49 1026.20 1025.89 1025.55 1025.15 1024.71 1024.21 1023.68 1023.13 1022.56 1021.99 1021.44 1020.92 1020.45 1020.02 1019.63 1019.29 1018.99 1018.72 1018.47 1018.25 1018.04 1017.84 1017.66
Thickness
5416 5413 5411 5408 5405 5403 5401 5399 5397 5396 5395 5395 5395 5395 5395 5395 5395 5395 5395 5395 5394 5394 5394 5393 5392 5391 5390 5389 5388 5388 5388 5389 5394 5401 5402 5403 5405 5408 5411 5414 5417 5421 5424
5406 5403 5400 5397 5395 5392 5390 5388 5387 5385 5384 5384 5383 5383 5383 5383 5382 5382 5382 5382 5381 5381 5381 5380 5379 5378 5377 5376 5375 5374 5374 5375 5378 5383 5387 5388 5390 5393 5396 5399 5403 5406 5409
5395 5392 5389 5386 5384 5381 5379 5377 5376 5374 5373 5372 5371 5371 5371 5371 5370 5370 5369 5369 5369 5369 5368 5368 5367 5365 5365 5363 5362 5362 5362 5363 5364 5367 5371 5373 5376 5378 5381 5385 5389 5392 5396
5384 5381 5378 5375 5373 5371 5369 5367 5365 5363 5362 5361 5360 5360 5359 5359 5358 5358 5357 5358 5357 5357 5357 5356 5355 5354 5353 5352 5351 5350 5350 5350 5351 5353 5356 5359 5362 5364 5366 5370 5376 5379 5383
5373 5370 5367 5365 5363 5360 5358 5355 5353 5352 5351 5349 5348 5348 5347 5347 5347 5346 5347 5347 5346 5345 5345 5345 5344 5343 5343 5342 5342 5341 5340 5339 5340 5341 5344 5346 5348 5350 5352 5355 5360 5366 5370
5361 5359 5356 5353 5351 5348 5346 5344 5342 5340 5339 5337 5336 5336 5335 5335 5336 5338 5337 5336 5335 5335 5334 5334 5332 5332 5331 5331 5331 5330 5329 5329 5329 5329 5332 5333 5335 5336 5338 5341 5345 5351 5358
5350 5348 5345 5342 5340 5337 5335 5333 5331 5328 5327 5325 5324 5323 5323 5323 5325 5327 5327 5326 5324 5324 5323 5322 5321 5321 5320 5319 5318 5318 5317 5317 5318 5318 5319 5321 5322 5324 5326 5329 5332 5336 5342
5339 5336 5334 5332 5329 5327 5324 5322 5319 5317 5315 5313 5312 5311 5311 5311 5314 5315 5316 5314 5313 5312 5311 5310 5310 5309 5308 5308 5308 5307 5306 5306 5306 5307 5308 5310 5311 5312 5313 5316 5319 5324 5330
5327 5325 5323 5321 5319 5316 5314 5311 5309 5306 5304 5302 5300 5300 5299 5299 5302 5304 5305 5303 5302 5301 5300 5300 5299 5298 5298 5299 5298 5298 5298 5297 5297 5297 5298 5299 5300 5302 5303 5304 5307 5310 5317
5316 5314 5312 5310 5308 5306 5303 5301 5298 5296 5293 5291 5290 5288 5288 5288 5290 5292 5292 5291 5291 5291 5290 5289 5289 5288 5288 5288 5287 5286 5286 5287 5287 5287 5287 5288 5289 5290 5291 5292 5294 5297 5303
5305 5303 5301 5299 5297 5294 5292 5289 5287 5285 5282 5279 5278 5278 5277 5277 5279 5280 5280 5279 5280 5279 5279 5279 5278 5278 5278 5277 5277 5275 5276 5276 5276 5276 5277 5277 5278 5279 5280 5282 5283 5285 5290
5293 5291 5289 5287 5285 5283 5280 5277 5275 5272 5270 5268 5268 5267 5266 5266 5267 5267 5268 5269 5269 5268 5268 5268 5268 5268 5268 5267 5266 5265 5265 5265 5264 5264 5265 5266 5267 5268 5269 5271 5273 5276 5279
5281 5279 5277 5275 5273 5271 5268 5266 5263 5261 5260 5259 5258 5257 5256 5256 5255 5256 5257 5258 5258 5257 5257 5257 5258 5258 5257 5255 5254 5253 5253 5252 5252 5252 5253 5254 5255 5256 5257 5260 5263 5266 5269
5269 5267 5265 5263 5261 5259 5257 5255 5252 5250 5248 5247 5247 5247 5246 5245 5244 5245 5245 5245 5246 5246 5246 5246 5246 5245 5244 5243 5242 5241 5240 5240 5240 5241 5242 5242 5243 5245 5247 5249 5252 5255 5259
5257 5255 5254 5252 5249 5246 5245 5242 5241 5240 5238 5238 5237 5236 5236 5235 5236 5236 5236 5236 5236 5236 5235 5234 5233 5232 5232 5231 5230 5229 5228 5228 5228 5229 5230 5231 5233 5235 5236 5238 5241 5244 5247
5247 5244 5242 5240 5237 5235 5233 5231 5230 5229 5229 5228 5227 5227 5226 5227 5227 5228 5227 5227 5227 5226 5224 5222 5221 5220 5219 5218 5218 5217 5217 5216 5216 5217 5218 5219 5221 5223 5225 5228 5231 5234 5237
5234 5232 5230 5229 5226 5223 5222 5220 5218 5218 5218 5217 5216 5216 5216 5216 5217 5217 5217 5216 5216 5215 5212 5210 5209 5208 5207 5206 5205 5205 5205 5205 5205 5206 5207 5209 5210 5213 5215 5218 5221 5224 5227
5223 5222 5220 5217 5214 5212 5210 5208 5207 5206 5205 5204 5204 5204 5204 5205 5205 5205 5205 5204 5202 5201 5199 5197 5196 5196 5195 5194 5194 5194 5195 5195 5195 5196 5197 5199 5200 5203 5206 5209 5212 5214 5218
5212 5210 5208 5206 5204 5201 5199 5197 5196 5194 5193 5192 5192 5192 5193 5193 5193 5192 5192 5190 5188 5187 5186 5185 5185 5184 5184 5184 5184 5184 5184 5185 5186 5186 5188 5190 5192 5194 5197 5200 5203 5207 5210
5201 5200 5198 5196 5193 5191 5189 5187 5185 5183 5182 5181 5180 5180 5180 5180 5179 5179 5178 5176 5176 5175 5174 5174 5174 5174 5174 5174 5174 5174 5174 5176 5177 5178 5180 5182 5184 5186 5189 5192 5195 5199 5202
5190 5188 5188 5185 5182 5180 5178 5176 5174 5172 5171 5170 5169 5169 5170 5169 5168 5167 5166 5165 5165 5164 5164 5164 5164 5164 5164 5164 5165 5165 5166 5167 5169 5170 5172 5174 5177 5179 5182 5185 5188 5191 5194
5180 5178 5176 5174 5172 5170 5168 5166 5164 5162 5161 5159 5159 5159 5160 5158 5156 5155 5155 5155 5155 5154 5154 5154 5155 5155 5156 5156 5156 5157 5158 5160 5162 5163 5165 5167 5169 5172 5175 5179 5182 5185 5187
5170 5168 5166 5164 5162 5161 5158 5156 5154 5152 5150 5149 5149 5149 5148 5147 5146 5145 5145 5145 5145 5146 5146 5146 5146 5147 5148 5149 5149 5150 5151 5153 5155 5157 5158 5161 5163 5166 5169 5172 5175 5178 5181
5161 5158 5156 5154 5152 5149 5147 5145 5144 5142 5141 5140 5139 5138 5137 5136 5136 5136 5136 5136 5137 5137 5138 5138 5139 5140 5141 5142 5143 5144 5146 5147 5149 5151 5152 5154 5157 5160 5163 5166 5169 5173 5176
5151 5149 5146 5144 5142 5139 5138 5136 5134 5133 5132 5131 5130 5129 5128 5127 5127 5128 5128 5129 5129 5130 5131 5132 5133 5134 5135 5137 5138 5139 5141 5143 5145 5146 5148 5150 5152 5155 5158 5161 5164 5167 5170
5142 5139 5137 5135 5133 5131 5129 5127 5126 5124 5123 5122 5121 5120 5120 5120 5120 5121 5121 5122 5123 5124 5125 5126 5127 5128 5130 5132 5133 5135 5137 5139 5141 5143 5144 5146 5149 5151 5154 5157 5159 5162 5165